Location: Unspecified
(49.2170°N, 0.0000°E)
Time: 12:10:44
(UTC+00:00)

S-56A Canister/Altair - Pass Details

Date: 21 January 2021
Orbit: 631 x 2501 km, 38.9° (Epoch: 05 March)

Event Time Altitude Azimuth Distance (km) Brightness Sun altitude
Exits shadow 06:43:27 - 251° (WSW) 2,601 9.8 -9.9°
Reaches altitude 10° 06:44:29 10° 244° (WSW) 2,287 9.5 -9.7°
Maximum altitude 06:48:52 27° 188° (S) 1,680 9.4 -9.0°
Drops below altitude 10° 06:54:36 10° 134° (SE) 3,055 11.9 -8.1°
Sets 06:58:25 0° 123° (ESE) 4,356 13.4 -7.6°
